| time (UTC) | temp F | wind direction | speed MPH | gust MPH | rain 1hr in | rain 24hr in | rain mn in | humidity % | barometer mb |
| 20260504050403 | 40 | 315 | 1.0 | 2.0 | 0.00 | 0.00 | 0.00 | 95 | 1019.0 |
| 20260504045900 | 39 | 0 | 0.0 | 1.0 | 0.00 | 0.00 | 0.00 | 94 | 1018.8 |
| 20260504045355 | 39 | 299 | 0.0 | 1.0 | 0.00 | 0.00 | 0.00 | 94 | 1018.8 |
| 20260504044852 | 40 | 311 | 1.0 | 2.0 | 0.00 | 0.00 | 0.00 | 94 | 1018.6 |
| 20260504044350 | 40 | 269 | 2.0 | 3.0 | 0.00 | 0.00 | 0.00 | 94 | 1019.0 |
| 20260504043847 | 40 | 324 | 0.0 | 1.0 | 0.00 | 0.00 | 0.00 | 94 | 1018.7 |
| 20260504043344 | 40 | 295 | 2.0 | 2.0 | 0.00 | 0.00 | 0.00 | 94 | 1018.6 |
| 20260504042841 | 40 | 283 | 2.0 | 2.0 | 0.00 | 0.00 | 0.00 | 93 | 1018.5 |
| 20260504042337 | 40 | 287 | 1.0 | 2.0 | 0.00 | 0.00 | 0.00 | 93 | 1018.6 |
| 20260504041834 | 40 | 297 | 1.0 | 2.0 | 0.00 | 0.00 | 0.00 | 92 | 1018.6 |
| 20260504041330 | 40 | 288 | 2.0 | 3.0 | 0.00 | 0.00 | 0.00 | 92 | 1018.7 |
| 20260504040826 | 41 | 307 | 2.0 | 2.0 | 0.00 | 0.00 | 0.00 | 92 | 1018.4 |
| 20260504040324 | 41 | 55 | 0.0 | 2.0 | 0.00 | 0.00 | 0.00 | 92 | 1018.4 |
| 20260504035820 | 41 | 292 | 2.0 | 2.0 | 0.00 | 0.00 | 0.00 | 92 | 1018.1 |
| 20260504035318 | 41 | 282 | 1.0 | 2.0 | 0.00 | 0.00 | 0.00 | 92 | 1018.2 |
| 20260504034814 | 41 | 329 | 0.0 | 2.0 | 0.00 | 0.00 | 0.00 | 92 | 1018.1 |
| 20260504034312 | 41 | 329 | 0.0 | 2.0 | 0.00 | 0.00 | 0.00 | 91 | 1018.2 |
| 20260504033809 | 41 | 325 | 0.0 | 2.0 | 0.00 | 0.00 | 0.00 | 90 | 1018.0 |
| 20260504033307 | 41 | 301 | 2.0 | 3.0 | 0.00 | 0.00 | 0.00 | 90 | 1018.3 |
| 20260504032803 | 41 | 315 | 0.0 | 2.0 | 0.00 | 0.00 | 0.00 | 89 | 1018.2 |
| 20260504032300 | 42 | 293 | 0.0 | 2.0 | 0.00 | 0.00 | 0.00 | 88 | 1018.4 |
| 20260504031757 | 42 | 307 | 0.0 | 0.0 | 0.00 | 0.00 | 0.00 | 88 | 1018.2 |
| 20260504031254 | 42 | 313 | 1.0 | 2.0 | 0.00 | 0.00 | 0.00 | 88 | 1018.3 |
| 20260504030750 | 42 | 269 | 0.0 | 2.0 | 0.00 | 0.00 | 0.00 | 88 | 1018.2 |
| 20260504030248 | 42 | 269 | 0.0 | 1.0 | 0.00 | 0.00 | 0.00 | 88 | 1018.4 |
| 20260504025744 | 42 | 288 | 2.0 | 2.0 | 0.00 | 0.00 | 0.00 | 87 | 1018.2 |
| 20260504025241 | 42 | 240 | 0.0 | 1.0 | 0.00 | 0.00 | 0.00 | 87 | 1018.3 |
| 20260504024738 | 43 | 347 | 0.0 | 2.0 | 0.00 | 0.00 | 0.00 | 86 | 1018.5 |
| 20260504024234 | 43 | 302 | 1.0 | 2.0 | 0.00 | 0.00 | 0.00 | 85 | 1018.4 |
| 20260504023731 | 43 | 294 | 1.0 | 2.0 | 0.00 | 0.00 | 0.00 | 85 | 1018.5 |
| 20260504023227 | 44 | 249 | 0.0 | 0.0 | 0.00 | 0.00 | 0.00 | 85 | 1018.5 |
| 20260504022723 | 44 | 299 | 1.0 | 2.0 | 0.00 | 0.00 | 0.00 | 84 | 1018.4 |
| 20260504022220 | 44 | 269 | 0.0 | 1.0 | 0.00 | 0.00 | 0.00 | 85 | 1018.4 |
| 20260504021717 | 44 | 290 | 1.0 | 2.0 | 0.00 | 0.00 | 0.00 | 82 | 1018.3 |
| 20260504021214 | 45 | 293 | 0.0 | 0.0 | 0.00 | 0.00 | 0.00 | 82 | 1018.2 |
| 20260504020711 | 45 | 280 | 0.0 | 0.0 | 0.00 | 0.00 | 0.00 | 82 | 1018.0 |
| 20260504020207 | 45 | 320 | 0.0 | 1.0 | 0.00 | 0.00 | 0.00 | 82 | 1018.1 |
| 20260504015704 | 45 | 303 | 0.0 | 2.0 | 0.00 | 0.00 | 0.00 | 80 | 1017.9 |
| 20260504015200 | 46 | 310 | 1.0 | 2.0 | 0.00 | 0.00 | 0.00 | 79 | 1018.1 |
| 20260504014656 | 46 | 269 | 0.0 | 1.0 | 0.00 | 0.00 | 0.00 | 79 | 1017.9 |
| 20260504014153 | 46 | 299 | 1.0 | 2.0 | 0.00 | 0.00 | 0.00 | 79 | 1018.1 |
| 20260504013651 | 46 | 294 | 0.0 | 2.0 | 0.00 | 0.00 | 0.00 | 78 | 1018.1 |
| 20260504013148 | 47 | 286 | 0.0 | 2.0 | 0.00 | 0.00 | 0.00 | 77 | 1018.1 |
| 20260504012645 | 47 | 317 | 1.0 | 2.0 | 0.00 | 0.00 | 0.00 | 75 | 1017.9 |
| 20260504012143 | 48 | 305 | 1.0 | 2.0 | 0.00 | 0.00 | 0.00 | 74 | 1017.9 |
| 20260504011639 | 48 | 256 | 0.0 | 1.0 | 0.00 | 0.00 | 0.00 | 74 | 1017.7 |
| 20260504011136 | 48 | 283 | 0.0 | 2.0 | 0.00 | 0.00 | 0.00 | 73 | 1017.7 |
| 20260504010631 | 49 | 293 | 0.0 | 0.0 | 0.00 | 0.00 | 0.00 | 72 | 1017.6 |
| 20260504010127 | 49 | 290 | 0.0 | 1.0 | 0.00 | 0.00 | 0.00 | 73 | 1017.7 |
| 20260504005625 | 49 | 287 | 1.0 | 2.0 | 0.00 | 0.00 | 0.00 | 70 | 1017.6 |
| 20260504005121 | 50 | 294 | 1.0 | 1.0 | 0.00 | 0.00 | 0.00 | 70 | 1017.4 |
| 20260504004620 | 50 | 295 | 1.0 | 2.0 | 0.00 | 0.00 | 0.00 | 68 | 1017.4 |
| 20260504004117 | 51 | 345 | 0.0 | 2.0 | 0.00 | 0.00 | 0.00 | 68 | 1017.2 |
| 20260504003613 | 51 | 287 | 2.0 | 2.0 | 0.00 | 0.00 | 0.00 | 67 | 1017.2 |
| 20260503222755 | 66 | 274 | 3.0 | 7.0 | 0.00 | 0.00 | 0.00 | 38 | 1017.0 |
| 20260503222253 | 66 | 274 | 3.0 | 7.0 | 0.00 | 0.00 | 0.00 | 38 | 1017.0 |
| 20260503221751 | 65 | 257 | 3.0 | 4.0 | 0.00 | 0.00 | 0.00 | 38 | 1017.0 |
| 20260503221249 | 66 | 268 | 4.0 | 10.0 | 0.00 | 0.00 | 0.00 | 36 | 1017.1 |
| 20260503220745 | 66 | 330 | 5.0 | 5.0 | 0.00 | 0.00 | 0.00 | 36 | 1017.1 |
| 20260503220242 | 66 | 346 | 1.0 | 9.0 | 0.00 | 0.00 | 0.00 | 38 | 1017.0 |
| 20260503215739 | 66 | 264 | 3.0 | 5.0 | 0.00 | 0.00 | 0.00 | 39 | 1017.0 |
| 20260503215236 | 66 | 324 | 4.0 | 5.0 | 0.00 | 0.00 | 0.00 | 38 | 1017.0 |
| 20260503214734 | 66 | 304 | 2.0 | 5.0 | 0.00 | 0.00 | 0.00 | 37 | 1017.3 |
| 20260503214230 | 66 | 237 | 4.0 | 9.0 | 0.00 | 0.00 | 0.00 | 39 | 1017.0 |
| 20260503213729 | 66 | 300 | 4.0 | 6.0 | 0.00 | 0.00 | 0.00 | 38 | 1017.1 |
| 20260503213226 | 66 | 294 | 4.0 | 7.0 | 0.00 | 0.00 | 0.00 | 37 | 1017.1 |
| 20260503212722 | 65 | 267 | 7.0 | 9.0 | 0.00 | 0.00 | 0.00 | 43 | 1017.1 |
| 20260503212220 | 65 | 283 | 2.0 | 6.0 | 0.00 | 0.00 | 0.00 | 40 | 1017.1 |
| 20260503211717 | 65 | 66 | 5.0 | 8.0 | 0.00 | 0.00 | 0.00 | 40 | 1017.2 |
| 20260503211213 | 65 | 274 | 2.0 | 6.0 | 0.00 | 0.00 | 0.00 | 46 | 1017.1 |
| 20260503210709 | 65 | 243 | 6.0 | 9.0 | 0.00 | 0.00 | 0.00 | 44 | 1017.0 |
| 20260503210207 | 65 | 310 | 7.0 | 10.0 | 0.00 | 0.00 | 0.00 | 45 | 1017.3 |
| 20260503205702 | 65 | 290 | 1.0 | 13.0 | 0.00 | 0.00 | 0.00 | 45 | 1017.4 |
| 20260503205158 | 65 | 256 | 3.0 | 7.0 | 0.00 | 0.00 | 0.00 | 45 | 1017.5 |
| 20260503204655 | 64 | 359 | 1.0 | 5.0 | 0.00 | 0.00 | 0.00 | 44 | 1017.4 |
| 20260503204153 | 64 | 308 | 5.0 | 9.0 | 0.00 | 0.00 | 0.00 | 43 | 1017.4 |
| 20260503203649 | 64 | 260 | 4.0 | 6.0 | 0.00 | 0.00 | 0.00 | 42 | 1017.5 |
| 20260503203147 | 64 | 314 | 3.0 | 8.0 | 0.00 | 0.00 | 0.00 | 44 | 1017.6 |
| 20260503202644 | 64 | 262 | 4.0 | 7.0 | 0.00 | 0.00 | 0.00 | 41 | 1017.7 |
| 20260503202142 | 64 | 281 | 2.0 | 6.0 | 0.00 | 0.00 | 0.00 | 44 | 1017.9 |
| 20260503201640 | 64 | 290 | 6.0 | 7.0 | 0.00 | 0.00 | 0.00 | 45 | 1018.0 |
| 20260503201137 | 64 | 250 | 6.0 | 10.0 | 0.00 | 0.00 | 0.00 | 43 | 1018.1 |
| 20260503200633 | 64 | 344 | 1.0 | 8.0 | 0.00 | 0.00 | 0.00 | 45 | 1018.1 |
| 20260503200130 | 64 | 265 | 10.0 | 11.0 | 0.00 | 0.00 | 0.00 | 43 | 1018.3 |
| 20260503195627 | 64 | 324 | 6.0 | 6.0 | 0.00 | 0.00 | 0.00 | 44 | 1018.2 |
| 20260503195123 | 64 | 227 | 0.0 | 8.0 | 0.00 | 0.00 | 0.00 | 44 | 1018.4 |
| 20260503194621 | 64 | 314 | 7.0 | 9.0 | 0.00 | 0.00 | 0.00 | 45 | 1018.4 |
| 20260503194116 | 64 | 279 | 5.0 | 6.0 | 0.00 | 0.00 | 0.00 | 48 | 1018.2 |
| 20260503193613 | 64 | 264 | 6.0 | 14.0 | 0.00 | 0.00 | 0.00 | 44 | 1018.4 |
| 20260503193108 | 64 | 294 | 4.0 | 14.0 | 0.00 | 0.00 | 0.00 | 42 | 1018.5 |
| 20260503192604 | 64 | 275 | 3.0 | 7.0 | 0.00 | 0.00 | 0.00 | 41 | 1018.4 |
| 20260503192100 | 65 | 240 | 8.0 | 16.0 | 0.00 | 0.00 | 0.00 | 44 | 1018.5 |
| 20260503191557 | 64 | 252 | 3.0 | 8.0 | 0.00 | 0.00 | 0.00 | 42 | 1018.8 |
| 20260503191054 | 64 | 315 | 7.0 | 9.0 | 0.00 | 0.00 | 0.00 | 44 | 1019.0 |
| 20260503190551 | 63 | 328 | 4.0 | 6.0 | 0.00 | 0.00 | 0.00 | 40 | 1018.7 |
| 20260503190048 | 63 | 323 | 4.0 | 11.0 | 0.00 | 0.00 | 0.00 | 47 | 1018.8 |
| 20260503185544 | 64 | 259 | 5.0 | 11.0 | 0.00 | 0.00 | 0.00 | 43 | 1019.0 |
| 20260503185044 | 64 | 256 | 7.0 | 7.0 | 0.00 | 0.00 | 0.00 | 43 | 1018.8 |
| 20260503184540 | 63 | 285 | 6.0 | 7.0 | 0.00 | 0.00 | 0.00 | 44 | 1018.8 |
| 20260503184037 | 62 | 255 | 10.0 | 11.0 | 0.00 | 0.00 | 0.00 | 45 | 1019.1 |
| 20260503183534 | 63 | 156 | 1.0 | 4.0 | 0.00 | 0.00 | 0.00 | 42 | 1019.0 |
| 20260503183031 | 63 | 248 | 6.0 | 7.0 | 0.00 | 0.00 | 0.00 | 42 | 1019.0 |
| 20260503182529 | 63 | 242 | 9.0 | 12.0 | 0.00 | 0.00 | 0.00 | 43 | 1019.1 |
| 20260503182027 | 62 | 328 | 7.0 | 9.0 | 0.00 | 0.00 | 0.00 | 45 | 1019.0 |
| 20260503181524 | 62 | 260 | 4.0 | 6.0 | 0.00 | 0.00 | 0.00 | 42 | 1019.1 |
| 20260503181020 | 62 | 285 | 6.0 | 10.0 | 0.00 | 0.00 | 0.00 | 42 | 1019.1 |
| 20260503180517 | 62 | 288 | 3.0 | 9.0 | 0.00 | 0.00 | 0.00 | 44 | 1019.3 |
| 20260503180014 | 62 | 237 | 4.0 | 9.0 | 0.00 | 0.00 | 0.00 | 42 | 1019.2 |
| 20260503175512 | 62 | 314 | 5.0 | 9.0 | 0.00 | 0.00 | 0.00 | 42 | 1019.3 |
| 20260503175009 | 62 | 267 | 2.0 | 3.0 | 0.00 | 0.00 | 0.00 | 42 | 1019.4 |
| 20260503174506 | 62 | 266 | 6.0 | 9.0 | 0.00 | 0.00 | 0.00 | 44 | 1019.3 |
| 20260503174002 | 62 | 74 | 2.0 | 4.0 | 0.00 | 0.00 | 0.00 | 40 | 1019.3 |
| 20260503173457 | 61 | 252 | 5.0 | 8.0 | 0.00 | 0.00 | 0.00 | 44 | 1019.3 |
| 20260503172954 | 61 | 316 | 6.0 | 10.0 | 0.00 | 0.00 | 0.00 | 48 | 1019.3 |
| 20260503172452 | 62 | 299 | 4.0 | 5.0 | 0.00 | 0.00 | 0.00 | 45 | 1019.6 |
| 20260503171948 | 61 | 289 | 6.0 | 7.0 | 0.00 | 0.00 | 0.00 | 45 | 1019.6 |
| 20260503171445 | 61 | 255 | 7.0 | 9.0 | 0.00 | 0.00 | 0.00 | 44 | 1019.7 |
| 20260503170943 | 60 | 312 | 4.0 | 4.0 | 0.00 | 0.00 | 0.00 | 47 | 1019.8 |
| 20260503170438 | 61 | 260 | 4.0 | 7.0 | 0.00 | 0.00 | 0.00 | 48 | 1019.8 |
| 20260503150831 | 57 | 258 | 1.0 | 5.0 | 0.00 | 0.00 | 0.00 | 54 | 1020.9 |
| 20260503150327 | 57 | 123 | 2.0 | 5.0 | 0.00 | 0.00 | 0.00 | 54 | 1020.8 |
| 20260503140251 | 52 | 241 | 4.0 | 6.0 | 0.00 | 0.00 | 0.00 | 63 | 1020.7 |
| 20260503131221 | 43 | 289 | 0.0 | 2.0 | 0.00 | 0.00 | 0.00 | 93 | 1020.4 |
| 20260503130719 | 42 | 84 | 1.0 | 2.0 | 0.00 | 0.00 | 0.00 | 96 | 1020.2 |
| 20260503130215 | 41 | 65 | 2.0 | 3.0 | 0.00 | 0.00 | 0.00 | 98 | 1020.4 |
| 20260503120141 | 35 | 307 | 0.0 | 0.0 | 0.00 | 0.00 | 0.00 | 98 | 1020.3 |
| 20260503110609 | 34 | 299 | 1.0 | 2.0 | 0.00 | 0.00 | 0.00 | 98 | 1019.6 |
| 20260503110106 | 34 | 315 | 1.0 | 1.0 | 0.00 | 0.00 | 0.00 | 98 | 1019.6 |
| 20260503090455 | 35 | 307 | 2.0 | 4.0 | 0.00 | 0.00 | 0.00 | 97 | 1018.6 |
| 20260503081422 | 35 | 46 | 0.0 | 2.0 | 0.00 | 0.00 | 0.00 | 96 | 1018.0 |
| 20260503080919 | 35 | 308 | 2.0 | 2.0 | 0.00 | 0.00 | 0.00 | 96 | 1018.0 |
| 20260503080416 | 35 | 296 | 0.0 | 2.0 | 0.00 | 0.00 | 0.00 | 96 | 1017.9 |
| 20260503072852 | 36 | 310 | 0.0 | 2.0 | 0.00 | 0.00 | 0.00 | 96 | 1017.6 |
| 20260503072349 | 36 | 294 | 3.0 | 3.0 | 0.00 | 0.00 | 0.00 | 96 | 1017.6 |
| 20260503071845 | 36 | 304 | 0.0 | 1.0 | 0.00 | 0.00 | 0.00 | 96 | 1017.5 |
| 20260503071343 | 36 | 310 | 2.0 | 2.0 | 0.00 | 0.00 | 0.00 | 96 | 1017.5 |
| 20260503070839 | 36 | 273 | 2.0 | 2.0 | 0.00 | 0.00 | 0.00 | 96 | 1017.4 |
| 20260503070337 | 36 | 321 | 0.0 | 2.0 | 0.00 | 0.00 | 0.00 | 95 | 1017.5 |